Martín Costa

Recruteur - Platense
29 Nov 2026
Dimanche
Processus

Personnalité

Adaptabilité (2) Ambition (18) Controverse (5) Loyauté (12) Pression (4) Professionnalisme (10) Sportivité (15) Tempérament (17)

Profil

Style d'entraînement Démocratique
Diplôme Continental B
Détermination 8
Gestion des joueurs 9
Motivation 7
Discipline 8
Satisfaction professionnelle
50%
Fatigue
0%
Rôle Recruteur
Salaire 58.6K p/s
Contrat 14.03.2028

Performance

Comportement Normal
Efficacité de l'entraînement
19%
Développement des joueurs
50%
Prévention des blessures
25%
Mise en place tactique
20%

Événements récents

A évalué un joueur maintenant
A participé à une réunion de recrutement maintenant
A évalué un joueur maintenant
A évalué un joueur maintenant
A évalué un joueur 7j
A évalué un joueur 7j
A évalué un joueur 7j
A évalué un joueur 7j

Suivi en cours

126
Joueur Club Statut Capacité Confiance Observé Dernière observation Dernier vote
Santiago Sandoval Guadalajara Actif 96 / 88 40% 3 28.11.2026 -
Róyner Benítez Aguilas Doradas Actif 102 / 106 40% 4 28.11.2026 -
Mohamed-Ali Cho Hull City Actif 128 / 140 40% 1 26.11.2026 -
Ramadan Ashour Masr El Makasa Actif 124 / 112 40% 1 25.11.2026 -
Aidan Morris Middlesbrough Actif 129 / 112 40% 1 25.11.2026 -
Mamadou Doumbia Watford Actif 126 / 134 40% 1 24.11.2026 -
Tamas Kleinheisler Haladas Actif 106 / 121 40% 1 24.11.2026 -
Justin-Noël Kalumba Mallorca Actif 120 / 116 40% 3 23.11.2026 -
Rayan Bournemouth Actif 135 / 154 40% 1 23.11.2026 -
Alexey Batrakov Galatasaray Actif 146 / 130 40% 1 22.11.2026 -
Joaquín Freitas Flamengo Actif 112 / 121 40% 1 22.11.2026 -
George Brown Sheffield Wednesday Actif 98 / 98 40% 2 21.11.2026 -
Rocco Vata Watford Actif 111 / 129 40% 1 21.11.2026 -
Tom Fellows Southampton Actif 118 / 127 40% 1 20.11.2026 -
Isma Ruiz Córdoba Actif 139 / 128 40% 1 20.11.2026 -
Tiziano Dornell Almagro Actif 111 / 115 40% 1 19.11.2026 -
Stefanos Tzimas Brighton Actif 133 / 154 40% 1 19.11.2026 -
Morgan Whittaker Middlesbrough Actif 138 / 133 40% 1 19.11.2026 -
Xavier Biscayzacú Defensor Sporting Actif 128 / 119 40% 6 17.11.2026 -
Mikel Gogorza Brondby Actif 130 / 111 40% 1 17.11.2026 -
Gabriel Monjes Hamrun Spartans Actif 71 / 86 40% 1 16.11.2026 -
Reda Khadra Qarabag Actif 142 / 128 40% 2 15.11.2026 -
Jacob Ambæk Brondby Actif 121 / 136 40% 1 15.11.2026 -
Max Bird Birmingham Actif 138 / 147 40% 1 15.11.2026 -
Manu Morlanes Mallorca Actif 150 / 136 40% 4 14.11.2026 -
Leandro Andrade Polissia Actif 141 / 130 40% 1 14.11.2026 -
Eli Junior Kroupi Bournemouth Actif 121 / 159 40% 1 12.11.2026 -
Fletcher Holman Swindon Town Actif 101 / 73 40% 1 12.11.2026 -
Valentín Luciani Fenix Actif 98 / 96 40% 2 11.11.2026 -
Mateus Mané Burnley Actif 116 / 129 40% 4 11.11.2026 -
Csanád Vilmos Dénes Debrecen Actif 87 / 104 40% 1 10.11.2026 -
Iwan Morgan Grimsby Town Actif 110 / 104 40% 1 10.11.2026 -
Alfie Doughty Millwall Actif 129 / 136 40% 1 09.11.2026 -
Matheus Alves CSKA Moscow Actif 139 / 122 40% 1 09.11.2026 -
Ousseynou Seck Randers Actif 118 / 133 40% 1 09.11.2026 -
Haissem Hassan Bloemfontein Celtic Actif 149 / 130 40% 1 07.11.2026 -
Adu Ares Eibar Actif 139 / 119 40% 1 07.11.2026 -
Alejandro Villarreal Caracas Actif 97 / 104 40% 3 05.11.2026 -
Alan Torterolo Defensor Sporting Actif 90 / 92 40% 1 05.11.2026 -
Jaminton Campaz Rosario Central Actif 129 / 130 40% 1 04.11.2026 -
Sorba Thomas Stoke City Actif 142 / 138 40% 1 04.11.2026 -
Efraín Álvarez Aston Villa Actif 120 / 114 40% 1 03.11.2026 -
Tomás Escalante Plaza Colonia Actif 125 / 116 40% 1 03.11.2026 -
Youssoufa Moukoko FC Copenhagen Actif 114 / 140 40% 1 02.11.2026 -
Leon Grgić Sturm Graz Actif 135 / 111 40% 1 02.11.2026 -
Seedy Jatta Sturm Graz Actif 137 / 115 40% 1 01.11.2026 -
Lucas Cepeda Elche Actif 140 / 110 40% 1 01.11.2026 -
Joel Orlando Almagro Actif 116 / 113 40% 4 31.10.2026 -
Miloš Jovičić Zabbar St. Patrick Actif 95 / 83 40% 1 31.10.2026 -
Matías Fernández Independiente Rivadavia Actif 131 / 131 40% 1 31.10.2026 -
Helinho Toluca Actif 138 / 138 40% 1 30.10.2026 -
Brooke Norton-Cuffy Hull City Actif 134 / 147 40% 1 30.10.2026 -
Nobel Mendy Hull City Actif 119 / 139 40% 1 30.10.2026 -
Tim Iroegbunam Hull City Actif 125 / 157 40% 1 30.10.2026 -
Leonel Galván Independiente Actif 94 / 111 40% 1 26.10.2026 -
Felipe Augusto Zenit Actif 132 / 116 40% 1 25.10.2026 -
Emiliano Álvarez Progreso Actif 118 / 131 40% 1 25.10.2026 -
Jalal Abdullai Molde Actif 126 / 123 40% 1 25.10.2026 -
Javier Altamirano Universidad de Chile Actif 133 / 115 40% 1 22.10.2026 -
Tyrhys Dolan Espanyol Actif 151 / 129 40% 1 22.10.2026 -
Babis Kostoulas Brighton Actif 134 / 139 40% 3 21.10.2026 -
Ilyas Ansah Hull City Actif 133 / 120 40% 1 21.10.2026 -
Andrés Dávila Independiente Medellin Actif 93 / 95 40% 1 20.10.2026 -
Rafael Moreno Atletico Venezuela Actif 106 / 116 40% 4 19.10.2026 -
Inti López River Plate Actif 92 / 89 40% 2 19.10.2026 -
Gastón Benedetti Estudiantes Actif 113 / 112 40% 2 18.10.2026 -
Shion Shinkawa Sint-Truiden Actif 104 / 118 40% 1 18.10.2026 -
Patrik Wålemark Lech Actif 132 / 131 40% 1 18.10.2026 -
Justo Giani Umraniyespor Actif 113 / 103 40% 2 16.10.2026 -
Jesus Ferreira Seattle Sounders Actif 126 / 121 40% 1 15.10.2026 -
Amin Boudri Los Angeles Football Club Actif 125 / 123 40% 1 14.10.2026 -
Tiago Pucciarelli IF Elfsborg Actif 82 / 95 40% 2 13.10.2026 -
Jonás Luna Wanderers Actif 117 / 110 40% 3 12.10.2026 -
Pedro de la Vega Seattle Sounders Actif 124 / 132 40% 1 09.10.2026 -
Bogdan Petrović TSC Actif 94 / 121 40% 1 09.10.2026 -
Juan Pablo Domínguez Leon Actif 112 / 135 40% 2 06.10.2026 -
Marcelo Allende Mamelodi Sundowns Actif 122 / 120 40% 1 06.10.2026 -
Alexis Gutiérrez Club America Actif 136 / 125 40% 1 05.10.2026 -
Ezequiel Bullaude Santos Laguna Actif 108 / 114 40% 1 05.10.2026 -
Matías Contrera Hrvatski Dragovoljac Actif 98 / 107 40% 2 04.10.2026 -
Moctar Diop KAA Gent Actif 129 / 129 40% 2 04.10.2026 -
Enrique Almeida Cerro Largo Actif 103 / 92 40% 1 03.10.2026 -
Ezekiel Kwame Alladoh Philadelphia Union Actif 127 / 137 40% 2 02.10.2026 -
Archie Goodwin Charlotte Football Club Actif 114 / 107 40% 1 02.10.2026 -
Nicolás Azambuja Danubio Actif 122 / 134 40% 1 01.10.2026 -
Júnior Gamarra Olimpia Actif 75 / 100 40% 1 30.09.2026 -
Thiago Salischiker Rucci Lucko Actif 89 / 88 40% 1 30.09.2026 -
Luciano Inverso Betis Actif 102 / 98 40% 2 29.09.2026 -
Cristian Iguarán Union Magdalena Actif 118 / 109 40% 3 26.09.2026 -
Rômulo Tigres Actif 121 / 121 40% 1 25.09.2026 -
Kelvin Yeboah Minnesota United FC Actif 115 / 113 40% 1 25.09.2026 -
Iker Benito Queretaro Actif 135 / 129 40% 1 23.09.2026 -
Juan Bisanz Huracán Actif 130 / 135 40% 1 23.09.2026 -
Talles Magno New York City Actif 132 / 115 40% 1 22.09.2026 -
Alexander Lyng SonderjyskE Actif 127 / 121 40% 1 22.09.2026 -
Yoshan Valois Lanús Actif 120 / 118 40% 3 21.09.2026 -
Marcos Gómez Lucko Actif 104 / 90 40% 3 21.09.2026 -
Miguel Marulanda Envigado Actif 80 / 109 40% 1 18.09.2026 -
Manuel Rodríguez Millonarios Actif 81 / 101 40% 1 14.09.2026 -
Bryan González Guadalajara Actif 140 / 148 40% 1 14.09.2026 -
David Da Costa Portland Timbers Actif 127 / 142 40% 1 14.09.2026 -
Facundo Núñez Liverpool Montevideo Actif 79 / 98 40% 2 11.09.2026 -
Tomás Alarcón Colo-Colo Actif 110 / 107 40% 1 11.09.2026 -
Iván Manzur Racing Actif 96 / 104 40% 1 11.09.2026 -
Bruno Morales Cerro Actif 82 / 94 40% 3 10.09.2026 -
Luka Andrade Montevideo City Torque Actif 104 / 99 40% 1 10.09.2026 -
Felipe Serrés Wanderers Actif 103 / 99 40% 2 07.09.2026 -
Ander Izarra Estudiantes de Merida Actif 91 / 102 40% 2 07.09.2026 -
Juan Rodríguez Wanderers Actif 92 / 104 40% 1 06.09.2026 -
Martín Araya Palestino Actif 90 / 94 40% 1 05.09.2026 -
Santiago Rey Real Santander Actif 92 / 89 40% 1 27.08.2026 -
Martin Carreño San Luis Actif 88 / 91 40% 2 26.08.2026 -
David Fernández O'Higgins Actif 109 / 122 40% 2 25.08.2026 -
Kevin Angulo America de Cali Actif 104 / 103 40% 1 25.08.2026 -
Eduardo Lozano Veracruz Actif 141 / 143 40% 2 23.08.2026 -
Luis Palacios Tigres Actif 100 / 101 40% 1 23.08.2026 -
Rodrigo Villalba Libertad Actif 93 / 111 40% 1 21.08.2026 -
Yojan Garcés America de Cali Actif 104 / 119 40% 1 16.08.2026 -
Esteban Crucci Wanderers Actif 102 / 110 40% 2 14.08.2026 -
Amaury Morales Cruz Azul Actif 121 / 96 40% 1 14.08.2026 -
Ihojan Pérez Cerro Largo Actif 87 / 109 40% 1 12.08.2026 -
Dilan Godoy Vélez Actif 98 / 107 40% 1 10.08.2026 -
Sergio Carrasco Cobresal Actif 87 / 94 40% 1 10.08.2026 -
Tahiel Jiménez Santos Laguna Actif 101 / 103 40% 1 09.08.2026 -
Luis Yanes Real Cartagena Actif 96 / 87 40% 1 08.08.2026 -
Idan Toklomati Charlotte Football Club Actif 114 / 113 40% 1 01.08.2026 -